| time (UTC) | temp F | wind direction | speed MPH | gust MPH | rain 1hr in | rain 24hr in | rain mn in | humidity % | barometer mb |
| 20260509011529 | 58 | 185 | 0.0 | 0.0 | 0.00 | 0.00 | 0.00 | 63 | 1014.5 |
| 20260509010034 | 58 | 185 | 1.0 | 2.0 | 0.00 | 0.00 | 0.00 | 61 | 1014.5 |
| 20260509004529 | 59 | 185 | 0.0 | 2.0 | 0.00 | 0.00 | 0.00 | 59 | 1014.4 |
| 20260509003028 | 59 | 168 | 1.0 | 3.0 | 0.00 | 0.00 | 0.00 | 59 | 1014.4 |
| 20260509001529 | 60 | 167 | 1.0 | 4.0 | 0.00 | 0.00 | 0.00 | 58 | 1014.4 |
| 20260509000025 | 60 | 184 | 2.0 | 4.0 | 0.00 | 0.00 | 0.00 | 58 | 1014.4 |
| 20260508234524 | 61 | 183 | 1.0 | 3.0 | 0.00 | 0.00 | 0.00 | 58 | 1014.3 |
| 20260508233029 | 62 | 182 | 1.0 | 3.0 | 0.00 | 0.00 | 0.00 | 57 | 1014.2 |
| 20260508231524 | 62 | 189 | 0.0 | 4.0 | 0.00 | 0.00 | 0.00 | 56 | 1014.2 |
| 20260508230023 | 63 | 175 | 0.0 | 4.0 | 0.00 | 0.00 | 0.00 | 55 | 1014.5 |
| 20260508224524 | 63 | 182 | 0.0 | 4.0 | 0.00 | 0.00 | 0.00 | 54 | 1014.3 |
| 20260508223022 | 64 | 181 | 0.0 | 2.0 | 0.00 | 0.00 | 0.00 | 55 | 1014.3 |
| 20260508221525 | 64 | 178 | 0.0 | 4.0 | 0.00 | 0.00 | 0.00 | 53 | 1014.3 |
| 20260508220021 | 65 | 175 | 1.0 | 5.0 | 0.00 | 0.00 | 0.00 | 52 | 1014.1 |
| 20260508214525 | 65 | 172 | 2.0 | 6.0 | 0.00 | 0.00 | 0.00 | 51 | 1014.2 |
| 20260508213019 | 65 | 200 | 1.0 | 7.0 | 0.00 | 0.00 | 0.00 | 50 | 1014.1 |
| 20260508211519 | 65 | 205 | 1.0 | 7.0 | 0.00 | 0.00 | 0.00 | 48 | 1014.3 |
| 20260508210030 | 66 | 236 | 5.0 | 10.0 | 0.00 | 0.00 | 0.00 | 44 | 1014.3 |
| 20260508204518 | 66 | 224 | 2.0 | 8.0 | 0.00 | 0.00 | 0.00 | 45 | 1014.3 |
| 20260508203017 | 66 | 186 | 2.0 | 7.0 | 0.00 | 0.00 | 0.00 | 46 | 1014.2 |
| 20260508201517 | 66 | 238 | 2.0 | 7.0 | 0.00 | 0.00 | 0.00 | 44 | 1014.6 |
| 20260508200016 | 66 | 194 | 3.0 | 9.0 | 0.00 | 0.00 | 0.00 | 46 | 1014.5 |
| 20260508194515 | 66 | 188 | 3.0 | 13.0 | 0.00 | 0.00 | 0.00 | 42 | 1014.6 |
| 20260508193015 | 67 | 237 | 3.0 | 9.0 | 0.00 | 0.00 | 0.00 | 44 | 1015.1 |
| 20260508191513 | 67 | 191 | 5.0 | 9.0 | 0.00 | 0.00 | 0.00 | 42 | 1015.4 |
| 20260508190013 | 66 | 278 | 5.0 | 8.0 | 0.00 | 0.00 | 0.00 | 41 | 1015.6 |
| 20260508184518 | 66 | 123 | 3.0 | 10.0 | 0.00 | 0.00 | 0.00 | 43 | 1015.7 |
| 20260508183010 | 66 | 243 | 2.0 | 9.0 | 0.00 | 0.00 | 0.00 | 48 | 1015.9 |
| 20260508181508 | 66 | 214 | 2.0 | 9.0 | 0.00 | 0.00 | 0.00 | 47 | 1016.1 |
| 20260508180008 | 66 | 173 | 4.0 | 8.0 | 0.00 | 0.01 | 0.00 | 40 | 1016.4 |
| 20260508174505 | 64 | 173 | 3.0 | 9.0 | 0.00 | 0.01 | 0.00 | 44 | 1016.6 |
| 20260508173005 | 64 | 196 | 6.0 | 10.0 | 0.00 | 0.01 | 0.00 | 41 | 1016.6 |
| 20260508171504 | 64 | 157 | 3.0 | 9.0 | 0.00 | 0.01 | 0.00 | 49 | 1016.9 |
| 20260508170003 | 63 | 252 | 4.0 | 10.0 | 0.00 | 0.01 | 0.00 | 45 | 1017.0 |
| 20260508164604 | 64 | 241 | 3.0 | 8.0 | 0.00 | 0.01 | 0.00 | 46 | 1017.3 |
| 20260508164502 | 63 | 164 | 2.0 | 8.0 | 0.00 | 0.01 | 0.00 | 46 | 1017.3 |
| 20260508163107 | 62 | 235 | 2.0 | 7.0 | 0.00 | 0.01 | 0.00 | 47 | 1017.5 |
| 20260508161559 | 62 | 244 | 2.0 | 11.0 | 0.00 | 0.01 | 0.00 | 47 | 1017.7 |
| 20260508160056 | 62 | 153 | 2.0 | 8.0 | 0.00 | 0.01 | 0.00 | 49 | 1017.9 |
| 20260508154556 | 62 | 134 | 3.0 | 7.0 | 0.00 | 0.01 | 0.00 | 48 | 1017.9 |
| 20260508153106 | 62 | 215 | 2.0 | 10.0 | 0.00 | 0.01 | 0.00 | 48 | 1018.1 |
| 20260508151556 | 62 | 55 | 2.0 | 8.0 | 0.00 | 0.01 | 0.00 | 51 | 1018.2 |
| 20260508150050 | 61 | 235 | 1.0 | 5.0 | 0.00 | 0.01 | 0.00 | 49 | 1018.2 |
| 20260508144548 | 60 | 176 | 1.0 | 8.0 | 0.00 | 0.01 | 0.00 | 52 | 1018.1 |
| 20260508143103 | 59 | 105 | 1.0 | 9.0 | 0.00 | 0.01 | 0.00 | 54 | 1018.2 |
| 20260508141551 | 59 | 155 | 2.0 | 6.0 | 0.00 | 0.01 | 0.00 | 52 | 1018.1 |
| 20260508140043 | 58 | 91 | 2.0 | 9.0 | 0.00 | 0.01 | 0.00 | 51 | 1018.2 |
| 20260508134541 | 58 | 74 | 3.0 | 6.0 | 0.00 | 0.02 | 0.00 | 53 | 1018.5 |
| 20260508133036 | 56 | 288 | 0.0 | 0.0 | 0.00 | 0.02 | 0.00 | 54 | 1018.5 |
| 20260508131532 | 54 | 288 | 0.0 | 0.0 | 0.00 | 0.02 | 0.00 | 54 | 1018.4 |
| 20260508130031 | 53 | 288 | 0.0 | 0.0 | 0.00 | 0.02 | 0.00 | 54 | 1018.4 |
| 20260508124532 | 52 | 313 | 0.0 | 0.0 | 0.00 | 0.11 | 0.00 | 55 | 1018.2 |
| 20260508123028 | 52 | 337 | 0.0 | 0.0 | 0.00 | 0.11 | 0.00 | 52 | 1017.8 |
| 20260508121525 | 50 | 337 | 0.0 | 3.0 | 0.00 | 0.11 | 0.00 | 50 | 1017.6 |
| 20260508120023 | 49 | 337 | 1.0 | 3.0 | 0.00 | 0.14 | 0.00 | 49 | 1017.5 |
| 20260508114523 | 49 | 337 | 1.0 | 3.0 | 0.00 | 0.14 | 0.00 | 47 | 1017.0 |
| 20260508113018 | 48 | 337 | 2.0 | 3.0 | 0.00 | 0.14 | 0.00 | 42 | 1017.0 |
| 20260508111517 | 47 | 337 | 2.0 | 4.0 | 0.00 | 0.14 | 0.00 | 41 | 1016.6 |
| 20260508110027 | 47 | 337 | 2.0 | 4.0 | 0.00 | 0.26 | 0.00 | 40 | 1016.1 |
| 20260508104516 | 47 | 337 | 1.0 | 4.0 | 0.00 | 0.26 | 0.00 | 38 | 1016.0 |
| 20260508103026 | 47 | 340 | 4.0 | 6.0 | 0.00 | 0.26 | 0.00 | 37 | 1015.5 |
| 20260508101511 | 46 | 346 | 3.0 | 6.0 | 0.00 | 0.26 | 0.00 | 34 | 1015.4 |
| 20260508100006 | 46 | 11 | 6.0 | 8.0 | 0.00 | 0.42 | 0.00 | 38 | 1015.3 |
| 20260508094503 | 46 | 311 | 3.0 | 5.0 | 0.00 | 0.42 | 0.00 | 38 | 1015.1 |
| 20260508093101 | 46 | 317 | 3.0 | 4.0 | 0.00 | 0.42 | 0.00 | 38 | 1014.9 |
| 20260508091614 | 47 | 334 | 3.0 | 6.0 | 0.00 | 0.42 | 0.00 | 38 | 1014.5 |
| 20260508090059 | 46 | 355 | 3.0 | 5.0 | 0.00 | 0.42 | 0.00 | 38 | 1014.7 |
| 20260508084557 | 47 | 330 | 3.0 | 6.0 | 0.00 | 0.48 | 0.00 | 38 | 1014.5 |
| 20260508083056 | 47 | 307 | 3.0 | 5.0 | 0.00 | 0.48 | 0.00 | 39 | 1014.4 |
| 20260508081611 | 47 | 316 | 4.0 | 6.0 | 0.00 | 0.48 | 0.00 | 39 | 1014.4 |
| 20260508080055 | 47 | 314 | 4.0 | 6.0 | 0.00 | 0.48 | 0.00 | 39 | 1014.2 |
| 20260508074551 | 47 | 286 | 2.0 | 4.0 | 0.00 | 0.64 | 0.00 | 42 | 1014.2 |
| 20260508073050 | 47 | 300 | 4.0 | 6.0 | 0.00 | 0.64 | 0.00 | 43 | 1014.3 |
| 20260508071547 | 48 | 315 | 3.0 | 5.0 | 0.00 | 0.64 | 0.00 | 46 | 1014.3 |
| 20260508070044 | 48 | 315 | 2.0 | 5.0 | 0.00 | 0.64 | 0.00 | 54 | 1014.3 |
| 20260508064541 | 48 | 330 | 4.0 | 6.0 | 0.00 | 1.00 | 0.00 | 59 | 1014.2 |
| 20260508063039 | 49 | 315 | 4.0 | 5.0 | 0.00 | 1.00 | 0.00 | 62 | 1014.1 |
| 20260508061535 | 50 | 303 | 3.0 | 5.0 | 0.00 | 1.00 | 0.00 | 63 | 1014.1 |
| 20260508060046 | 51 | 305 | 2.0 | 4.0 | 0.00 | 1.00 | 0.00 | 62 | 1014.2 |
| 20260508054607 | 51 | 305 | 1.0 | 4.0 | 0.00 | 1.19 | 0.00 | 62 | 1014.1 |
| 20260508053044 | 51 | 171 | 0.0 | 2.0 | 0.00 | 1.19 | 0.00 | 61 | 1014.1 |
| 20260508051528 | 51 | 171 | 0.0 | 2.0 | 0.00 | 1.19 | 0.00 | 60 | 1014.2 |
| 20260508050025 | 52 | 171 | 0.0 | 4.0 | 0.00 | 1.50 | 0.00 | 60 | 1014.1 |
| 20260508044522 | 53 | 239 | 1.0 | 3.0 | 0.00 | 1.50 | 0.00 | 60 | 1014.0 |
| 20260508043030 | 53 | 304 | 5.0 | 10.0 | 0.00 | 1.50 | 0.00 | 57 | 1013.7 |
| 20260508041516 | 54 | 320 | 7.0 | 11.0 | 0.00 | 1.50 | 0.00 | 57 | 1013.6 |
| 20260508040111 | 54 | 314 | 7.0 | 12.0 | 0.00 | 1.50 | 0.00 | 56 | 1013.6 |
| 20260508034512 | 55 | 303 | 8.0 | 11.0 | 0.00 | 1.51 | 1.50 | 55 | 1013.5 |
| 20260508033013 | 55 | 329 | 6.0 | 11.0 | 0.00 | 1.51 | 1.50 | 56 | 1013.5 |
| 20260508031511 | 55 | 330 | 6.0 | 10.0 | 0.00 | 1.51 | 1.50 | 56 | 1013.7 |
| 20260508030007 | 55 | 311 | 8.0 | 14.0 | 0.00 | 1.51 | 1.50 | 57 | 1013.6 |
| 20260508024504 | 55 | 315 | 6.0 | 10.0 | 0.00 | 1.51 | 1.50 | 59 | 1013.4 |
| 20260508023002 | 55 | 302 | 2.0 | 5.0 | 0.00 | 1.51 | 1.50 | 60 | 1013.5 |
| 20260508021600 | 55 | 297 | 2.0 | 5.0 | 0.00 | 1.51 | 1.50 | 58 | 1013.3 |
| 20260508020107 | 56 | 302 | 4.0 | 6.0 | 0.00 | 1.51 | 1.50 | 58 | 1013.3 |
| 20260508014615 | 57 | 328 | 5.0 | 9.0 | 0.00 | 1.53 | 1.50 | 56 | 1013.0 |
| 20260508013059 | 57 | 293 | 7.0 | 11.0 | 0.00 | 1.53 | 1.50 | 56 | 1012.7 |